Regional Weather Roundup
Issued by NWS

Home | Current Version | Previous Version | Graphics & Text | Print | Product List | Glossary On
Versions: 1 2 3 4 5 6 7 8 9 10 11 12 13 14 15 16 17 18 19 20 21 22 23 24 25 26 27 28 29 30 31 32 33 34 35 36 37 38 39 40 41 42 43 44 45 46 47 48 49 50
789
ASUS43 KMPX 281610
RWRMN
WEATHER ROUNDUP FOR MINNESOTA
NATIONAL WEATHER SERVICE TWIN CITIES/CHANHASSEN MN
1100 AM CDT WED JUN 28 2017


NOTE: "FAIR" INDICATES FEW OR NO CLOUDS BELOW 12,000 FEET WITH NO
SIGNIFICANT WEATHER AND/OR OBSTRUCTIONS TO VISIBILITY. N/A MEANS
CURRENT SKY AND/OR WEATHER CONDITIONS ARE NOT AVAILABLE.

MNZ060>063-068>070-281700-
   Twin Cities Metro

CITY           SKY/WX    TMP DP  RH WIND       PRES   REMARKS
TWIN CITIES    CLOUDY    68  64  87 SE13G20   29.59F
ST PAUL        CLOUDY    67  66  97 SE13      29.60F
CRYSTAL        CLOUDY    68  63  84 S9        29.56F
BLAINE         CLOUDY    66  66 100 SE13      29.58F
LAKEVILLE      PTSUNNY   66  66 100 S6        29.60F
EDEN PRAIRIE   CLOUDY    69  65  86 SE12      29.57F
SOUTH ST PAUL  CLOUDY    65  65 100 SE7       29.60F FOG
LAKE ELMO      LGT RAIN  64  64 100 S13       29.62F
$$
MNZ001>005-007-008-013>017-022>024-027-028-281700-
   Northwest Minnesota

CITY           SKY/WX    TMP DP  RH WIND       PRES   REMARKS
BEMIDJI        CLOUDY    60  57  89 E9        29.55S
HALLOCK        LGT RAIN  63  61  94 NE7       29.55R
ROSEAU         LGT RAIN  61  55  82 E5        29.58S
WARROAD        DRIZZLE   59  55  88 E6        29.59S
THIEF RVR FALL LGT RAIN  60  58  92 E15       29.53F
CROOKSTON      RAIN      59  57  94 E15       29.49F
FOSSTON        CLOUDY    59  57  94 E6        29.52F
DETROIT LAKES  CLOUDY    64  63  94 S9        29.50R
MOORHEAD       CLOUDY    66  63  88 S9        29.48S
PARK RAPIDS    CLOUDY    64  59  83 E8        29.52R
MAHNOMEN       CLOUDY    62  60  92 E9        29.50R
$$
MNZ006-009>011-018-025>026-281700-
   North Central Minnesota

CITY           SKY/WX    TMP DP  RH WIND       PRES   REMARKS
BAUDETTE       CLOUDY    61  54  77 E8        29.59F
FLAG ISLAND    PTSUNNY   63  54  72 E3        29.58S
INTL FALLS     LGT RAIN  61  53  75 SE7       29.62S
WASKISH        CLOUDY    61  55  82 E6        29.58S
BIG FORK       CLOUDY    63  55  77 SE5       29.60R
LONGVILLE      CLOUDY    59  55  88 E3        29.57R
GRAND RAPIDS   CLOUDY    61  55  81 SE9       29.61S
CRANE LAKE     CLOUDY    63  55  77 CALM      29.65S
ORR            CLOUDY    63  52  67 CALM      29.60S
COOK           CLOUDY    63  54  72 SE6       29.64R
WALKER         CLOUDY    60  56  88 E9G17     29.55S
$$
MNZ012-019>021-037-281700-
   Northeast Minnesota

CITY           SKY/WX    TMP DP  RH WIND       PRES   REMARKS
DULUTH         LGT RAIN  54  53  97 E13       29.64F FOG
ELY            CLOUDY    64  52  63 SE10      29.66S
HIBBING        CLOUDY    60  52  74 SE12      29.62F
EVELETH        LGT RAIN  60  49  67 E6        29.66S
DULUTH HARBOR  RAIN      52  48  87 NE14      29.65F
TWO HARBORS    LGT RAIN  57  54  88 E5        29.66F
SILVER BAY     DRIZZLE   55  52  88 NE6       29.68F
GRAND MARAIS     N/A     54  46  74 E7        29.70F
G MARAIS ARPRT CLOUDY    61  46  59 E5        29.73F
$$
MNZ029>031-032-039>041-046>048-054>057-064-281700-
   West Central Minnesota

CITY           SKY/WX    TMP DP  RH WIND       PRES   REMARKS
FERGUS FALLS   CLOUDY    66  66 100 S10       29.44F
WHEATON        CLOUDY    70  63  78 W10G18    29.47R
MORRIS         CLOUDY    72  63  73 SW16      29.46S
ALEXANDRIA     CLOUDY    67  64  90 S17       29.49F
ELBOW LAKE     CLOUDY    66  63  90 S13       29.47S
WADENA         CLOUDY    64  63  94 S7        29.50R
GLENWOOD       CLOUDY    66  64  94 S15G21    29.50F
APPLETON       CLOUDY    72  63  73 SW16      29.48F
BENSON         CLOUDY    70  63  78 SW13G18   29.50F
ORTONVILLE     CLOUDY    70  61  73 W16G26    29.48R
MADISON        CLOUDY    73  64  73 W16G23    29.51S
WILLMAR        FAIR      70  66  88 S3        29.54S
$$
MNZ033>034-036-042>043-049>051-058-059-281700-
   Central Minnesota

CITY           SKY/WX    TMP DP  RH WIND       PRES   REMARKS
ST CLOUD       LGT RAIN  66  66 100 S10       29.54F
SAUK CENTRE    LGT RAIN  65  64  94 S14       29.51F
PAYNESVILLE    DRIZZLE   66  66 100 S9        29.52F
AITKIN         RAIN      57  55  94 E9        29.55S
PINE RIVER     CLOUDY    61  61 100 MISG      29.58S
BRAINERD       LGT RAIN  60  59  96 SE7       29.54F
STAPLES        DRIZZLE   63  63 100 SE7       29.51S
LONG PRAIRIE   LGT RAIN  63  63 100 E14       29.51S
LITTLE FALLS   LGT RAIN  63  61  94 S12       29.52F
LITCHFIELD     DRIZZLE   68  66  94 SW8       29.54F
BUFFALO        LGT RAIN  67  64  90 SE7       29.55F
MAPLE LAKE     LGT RAIN  67  66  96 S3        29.55F
HUTCHINSON     CLOUDY    69  66  89 S6        29.56F
$$
MNZ037-044-045-052-053-281700-
   East Central Minnesota

CITY           SKY/WX    TMP DP  RH WIND       PRES   REMARKS
PRINCETON      RAIN      66  64  94 SE12      29.55F
MORA           RAIN      59  59 100 SE5       29.59F
CAMBRIDGE      LGT RAIN  68  63  83 SE10      29.55F
RUSH CITY      LGT RAIN  64  63  94 S12       29.59F
MOOSE LAKE     RAIN      59  55  88 E5        29.59F
HINCKLEY       LGT RAIN  59  59 100 E6        29.60F
CLOQUET        LGT RAIN  55  54  94 E7        29.62F
MCGREGOR       CLOUDY    59  55  88 E10G17    29.58F
$$
MNZ071>073-080-081-089-090-097-098-281700-
   Southwest Minnesota

CITY           SKY/WX    TMP DP  RH WIND       PRES   REMARKS
MONTEVIDEO     CLOUDY    72  70  94 W12G21    29.51S
GRANITE FALLS  CLOUDY    73  65  76 SW16G25   29.54F
CANBY          CLOUDY    73  63  71 SW17G24   29.55S
MARSHALL       CLOUDY    73  63  70 SW20G26   29.53F
REDWOOD FALLS  CLOUDY    71  64  78 SW18G25   29.53F
OLIVIA         CLOUDY    70  66  88 SW18      29.53F
PIPESTONE      MOSUNNY   70  64  83 SW13      29.60F
WINDOM         CLOUDY    75  64  69 SW15G25   29.59F
WORTHINGTON    MOSUNNY   74  64  71 SW20      29.61F
JACKSON        CLOUDY    73  64  73 SW18G28   29.63F
TRACY          CLOUDY    73  66  78 SW17G23   29.56F
SLAYTON        CLOUDY    69  63  80 SW17      29.60F
$$
MNZ065>067-074>077-082>085-091>093-281700-
   South Central Minnesota

CITY           SKY/WX    TMP DP  RH WIND       PRES   REMARKS
MANKATO        CLOUDY    70  66  87 S9        29.60F
NEW ULM        CLOUDY    73  64  73 SW18G24   29.56F
ST JAMES       CLOUDY    75  66  73 SW21      29.60F
FAIRMONT       CLOUDY    76  66  71 SW20G29   29.62F
GLENCOE        LGT RAIN  68  68 100 S6        29.55F
FARIBAULT      CLOUDY    68  64  88 SE12      29.62F
OWATONNA       MOSUNNY   72  64  78 S16G22    29.63F
WASECA         PTSUNNY   72  66  83 S13       29.64F
ALBERT LEA     CLOUDY    66  66 100 S12       29.65F
$$
MNZ078>079-086>088-094>096-281700-
   Southeast Minnesota

CITY           SKY/WX    TMP DP  RH WIND       PRES   REMARKS
ROCHESTER      CLOUDY    66  65  96 S16       29.69S
RED WING       LGT RAIN  66  63  88 S6        29.64F
STANTON        CLOUDY    68  64  87 S9        29.61F
DODGE CENTER   PTSUNNY   66  63  88 S12       29.66F
WINONA         RAIN      66  64  94 S3        29.70F
AUSTIN         CLOUDY    66  63  88 SE10G18   29.67S
PRESTON        CLOUDY    65  63  91 S14G23    29.72F
$$
ABBREVIATIONS USED IN REMARKS
   TC - TEMPERATURES IN CELSIUS
  WCI - WIND CHILL INDEX
   HX - HEAT INDEX
  VSB - VISIBILITY
$$




USA.gov is the U.S. government's official web portal to all federal, state and local government web resources and services.